[ hide orbit diagram ]
For accurate long-term ephemerides, please instead use our Horizons system.This orbit viewer was implemented using two-body methods, and hence should not be used for determining accurate long-term trajectories (over several years or decades) or planetary encounter circumstances.
Orbital Elements at Epoch 2459000.5 (2020-May-31.0) TDB
Reference: JPL 37 (heliocentric ecliptic J2000)
Element | Value | Uncertainty (1-sigma) | Units |
e | .455572663165681 | 3.1894e-06 | |
a | 32.33726557402711 | 0.00024422 | au |
q | 17.60529137697168 | 3.1193e-05 | au |
i | 2.625918870905655 | 3.5539e-06 | deg |
node | 259.0435692501731 | 0.00025871 | deg |
peri | 144.1810559713797 | 0.00040994 | deg |
M | 352.8599695124558 | 0.00017709 | deg |
tp | 2460332.643261633012 (2024-Jan-23.14326163) | 0.01815 | TDB |
period | 67166.60034218377 183.89 | 0.7609 0.002083 | d yr |
n | .005359806781435433 | 6.0719e-08 | deg/d |
Q | 47.06923977108254 | 0.00035548 | au |
|
| | Orbit Determination Parameters
Additional Information
|
[ show covariance matrix ]
Physical Parameter Table
Parameter |
Symbol |
Value |
Units |
Sigma |
Reference |
Notes |
absolute magnitude |
H |
7.0 |
|
n/a |
MPO452782 |
|
rotation period |
rot_per |
9.26 |
h |
n/a |
LCDB (Rev. 2020-October); Warner et al., 2009 |
Result based on less than full coverage, so that the period may be wrong by 30 percent or so. Published Reference List: [Thirouin, A.; Ortiz, J.L.; Campo Bagatin, A.; Pravec, P.; et al. (2012) Mon. Not. Royal Ast. Soc. 424, 3156-3177.] |
|
44594 (1999 OX3) Discovered 1999-Jul-21 by Kavelaars, J. J., Gladman, B., Holman, M., Petit, J.-M. at Mauna Kea |
Reference: 20020822/Numbers.arc | Last Updated: 2004-04-19 |
|
[ show close-approach data ]
|